Home > Weather > Schwäbisch Hall > Past weeks

Flag for Germany Weather for the Past 2 Weeks in Schwäbisch Hall, Baden-Württemberg, Germany

Now
50 °F

Partly sunny.


Feels Like: 47 °F
Forecast: 34 / 49 °F
Wind: 7 mph from South

Location: Niederstetten

Current Time: Feb 6, 2016 at 5:02:45 PM

Latest Report: Feb 6, 2016 at 4:20 PM


Visibility: N/A

Pressure: 29.92 "Hg

Humidity: 62%

Dew point: 37 °F

Location of Schwäbisch HallLocation

Historic Weather in Schwäbisch Hall — Graph

°F

Schwäbisch Hall Temperature Yesterday

Maximum temperature yesterday: 45 °F (at 3:20 PM)
Minimum temperature yesterday: 32 °F (at 5:20 AM)
Average temperature yesterday: 39 °F

High & Low Weather Summary for the Past Weeks

 TemperatureHumidityPressure
High54 °F (Jan 26, 12:20 PM)100% (Jan 23, 4:20 AM)30.60 "Hg (Jan 23, 4:20 AM)
Low18 °F (Jan 22, 8:20 PM)54% (Jan 27, 2:20 PM)29.83 "Hg (Jan 30, 4:20 PM)
Average41 °F85%30.20 "Hg
* Reported Jan 22 3:20 PM — Feb 6 3:20 PM, Schwäbisch Hall, Weather by CustomWeather, © 2016

Note: Actual official high and low records may vary slightly from our data, if they occured in-between our weather recording intervals... More about our weather records

Advertising

Schwäbisch Hall Weather History for the Previous 24 Hours

 ConditionsComfort  
Time TempWeatherWind HumidityBarometerVisibility
3:20 PM
Sat, Feb 6
54 °FPartly sunny.3 mph58%29.95 "HgN/A
2:20 PM54 °FPartly sunny.9 mph54%29.98 "HgN/A
1:20 PM52 °FPartly sunny.7 mph62%30.01 "HgN/A
12:20 PM48 °FPartly sunny.10 mph66%30.01 "HgN/A
11:20 AM46 °FPartly sunny.7 mph71%30.04 "HgN/A
10:20 AM43 °FPartly sunny.9 mph76%30.07 "HgN/A
9:20 AM39 °FPartly sunny.9 mph81%30.07 "HgN/A
8:20 AM37 °FPartly sunny.10 mph87%30.07 "HgN/A
7:20 AM37 °FPassing clouds.10 mph87%30.07 "HgN/A
6:20 AM37 °FPassing clouds.12 mph87%30.07 "HgN/A
5:20 AM37 °FChilly.12 mph87%30.09 "HgN/A
4:20 AM36 °FChilly.9 mph93%30.09 "HgN/A
3:20 AM37 °FChilly.8 mph87%30.12 "HgN/A
2:20 AM37 °FChilly.10 mph93%30.15 "HgN/A
1:20 AM37 °FChilly.9 mph93%30.15 "HgN/A
12:20 AM37 °FChilly.10 mph93%30.18 "HgN/A
11:20 PM
Fri, Feb 5
39 °FPassing clouds.9 mph93%30.18 "HgN/A
10:20 PM39 °FPassing clouds.7 mph93%30.21 "HgN/A
9:20 PM41 °FPassing clouds.6 mph93%30.21 "HgN/A
8:20 PM41 °FPassing clouds.5 mph93%30.24 "HgN/A
7:20 PM43 °FPassing clouds.6 mph93%30.27 "HgN/A
6:20 PM43 °FPartly cloudy.6 mph93%30.27 "HgN/A
5:20 PM43 °FPartly sunny.5 mph93%30.27 "HgN/A
Weather by CustomWeather, © 2016

See weather overviewHow to use our weather pages